Wind_Speed
22 28 33 34 34 34 35 36 36 36 36 36 35 33 34 35 35 34 34 32 30 31 31 32 33 36 36 35 36 37 37 36 35 34 34 32 35 36 35 33 33 32 32
29 28 26 33 39 39 38 37 36 36 38 38 38 38 38 37 37 37 37 36 36 35 36 36 37 37 39 41 40 40 40 40 37 36 37 37 37 39 37 35 36 37 34
31 33 27 21 32 39 43 43 41 39 38 38 40 42 42 42 41 41 40 40 39 39 39 40 39 35 34 35 36 35 36 37 37 38 39 39 40 36 37 38 40 40 39
33 34 33 34 23 21 31 41 46 46 44 43 42 43 42 42 41 41 42 43 42 41 42 41 42 41 41 40 39 39 39 38 40 41 42 43 42 39 40 42 43 43 43
35 33 37 37 39 28 29 26 34 44 50 49 47 46 47 47 47 46 46 45 45 45 45 44 43 43 43 43 42 43 43 44 44 44 44 44 44 44 45 47 48 47 46
37 37 34 39 37 35 36 28 26 30 41 50 53 50 48 50 49 49 49 48 48 47 47 47 47 46 45 45 46 47 45 46 46 46 45 46 48 49 50 50 49 49 47
41 34 36 37 39 36 39 34 29 31 31 37 48 53 53 52 52 51 50 50 50 49 49 50 51 49 48 46 47 48 49 48 49 51 50 51 52 50 50 48 47 46 48
45 44 46 41 41 40 40 37 38 38 39 40 44 49 53 55 55 55 53 52 52 51 51 51 53 52 51 51 51 52 53 54 55 55 55 54 53 51 50 48 50 52 53
46 48 41 41 48 46 42 42 39 40 44 45 45 47 49 53 56 57 57 57 57 56 56 56 56 57 57 58 57 58 58 56 57 57 57 57 57 56 57 57 57 56 57
44 41 37 38 44 44 42 44 42 41 45 42 47 47 42 43 48 54 56 57 58 59 59 58 59 60 60 60 60 59 58 58 58 58 59 60 60 59 59 58 57 58 56
51 43 46 50 46 43 45 42 45 42 43 39 39 42 46 44 44 43 46 51 56 58 59 60 62 63 63 63 63 64 63 62 60 61 59 60 60 60 60 59 60 59 60
50 51 47 46 45 44 43 43 42 45 43 42 39 40 40 43 46 44 42 44 47 49 52 56 58 59 62 64 64 63 64 64 63 63 64 63 62 61 61 61 60 60 58
50 50 48 52 53 56 49 47 44 48 45 43 41 44 45 44 45 45 47 50 51 52 55 57 57 58 59 58 60 62 62 62 64 63 64 62 62 62 62 61 61 61 61
55 51 54 57 58 60 57 51 56 58 50 48 45 45 47 47 45 47 51 52 52 54 55 58 59 59 59 64 64 64 64 64 63 63 62 61 62 62 62 62 60 59 60
54 47 51 52 57 61 59 58 61 56 54 53 51 47 49 49 49 48 50 53 53 54 53 51 52 54 55 58 59 58 58 59 57 58 59 60 59 57 55 56 57 58 55
56 54 56 61 63 61 69 68 57 53 54 56 53 48 52 53 54 54 55 57 55 52 51 53 54 56 60 59 57 56 56 54 52 51 47 45 46 44 44 42 44 47 49
60 61 52 51 52 55 55 51 54 59 56 56 55 50 50 54 52 51 52 52 48 50 53 57 58 55 51 50 54 55 52 48 46 44 43 50 52 57 60 57 55 52 56
58 51 50 50 48 49 51 52 52 54 53 51 48 48 47 50 52 54 54 44 47 48 51 51 50 53 50 51 53 51 54 55 56 60 62 64 63 62 63 66 64 62 64
68 58 53 47 50 49 49 50 45 46 47 52 53 54 54 55 58 56 52 52 55 52 47 54 55 59 61 63 61 63 59 60 62 63 67 69 71 70 69 70 72 74 78
74 59 52 54 54 57 55 58 49 48 45 52 54 55 56 55 58 59 54 57 54 52 56 60 65 67 68 69 69 67 66 64 67 70 72 74 76 78 76 77 80 82 84
74 63 53 46 48 51 53 52 51 56 47 45 46 55 56 60 59 64 68 66 62 62 65 66 66 70 73 71 66 67 69 68 72 78 77 78 81 82 83 86 88 89 89
77 66 64 62 54 51 45 54 52 50 48 49 55 54 59 64 67 70 56 63 67 68 68 67 72 73 72 73 72 71 72 76 80 80 82 84 88 89 90 90 92 93 90
79 79 68 64 65 63 61 55 55 61 58 60 60 59 61 67 65 60 64 63 63 66 70 64 71 80 83 80 81 83 82 85 84 87 90 90 89 92 94 92 91 93 96
78 76 74 61 57 59 56 57 61 62 60 62 62 64 68 69 67 68 71 75 75 78 79 83 84 85 89 88 88 89 92 92 91 91 94 95 94 93 92 93 98 95 91
77 72 72 72 67 58 60 59 63 64 66 68 68 71 76 77 83 83 84 84 82 83 87 86 87 88 89 92 91 95 94 94 94 95 99 98 95 97 99 103 102 100 99
65 72 72 63 60 55 61 60 44 52 65 62 69 74 78 78 80 81 80 82 81 76 83 87 91 96 98 101 100 100 97 97 100 104 99 99 102 106 107 106 108 109 110
Wind_Direction
271 266 264 261 261 258 256 257 258 261 259 260 262 263 265 270 274 278 280 281 281 279 279 278 277 272 271 270 274 279 281 284 283 283 288 294 299 300 300 296 301 304 308
273 269 279 264 259 260 261 258 259 261 261 261 260 261 264 265 268 270 272 275 278 278 280 279 277 276 274 272 275 278 278 282 280 284 288 293 295 298 296 295 297 302 302
269 271 267 269 261 260 259 262 263 262 264 264 263 263 264 266 268 269 269 271 273 274 276 277 279 278 282 284 283 286 282 280 282 284 286 287 290 290 290 291 295 299 300
267 270 265 264 269 268 264 260 262 264 265 265 267 267 267 267 268 270 271 272 272 272 273 275 277 277 279 281 281 281 282 280 281 284 285 288 289 287 288 292 293 295 297
265 269 270 261 262 274 284 272 265 262 263 265 266 268 269 269 269 269 270 271 273 272 273 274 273 273 275 278 278 278 279 281 283 284 286 285 286 288 289 291 293 294 295
263 263 267 256 260 273 283 268 280 278 267 264 265 266 269 270 270 269 270 271 272 273 273 273 274 273 272 275 278 279 280 280 281 282 283 283 285 286 288 289 289 290 291
263 259 271 264 254 273 276 266 276 285 284 280 269 266 267 268 270 272 272 271 273 273 274 276 275 277 278 276 276 278 279 280 282 283 284 284 285 287 289 288 288 285 286
263 267 273 264 250 270 270 262 276 281 289 289 279 269 266 266 267 268 271 273 273 274 275 276 277 276 276 276 277 278 280 281 282 283 284 286 286 287 287 283 283 282 282
266 270 269 261 254 267 261 261 270 273 289 288 280 274 270 267 267 267 267 270 272 272 273 274 275 276 277 278 279 280 281 282 283 284 284 285 286 284 283 282 284 283 284
263 268 260 261 265 261 264 262 272 277 286 287 285 273 276 277 274 270 270 271 272 273 275 277 276 277 277 278 279 279 280 281 281 282 282 283 283 283 284 284 283 283 284
266 260 264 269 257 258 264 266 270 283 289 288 286 283 281 283 282 276 273 274 273 273 273 273 273 274 275 276 277 278 278 278 279 279 279 279 280 281 282 283 283 285 285
261 262 267 260 255 263 267 267 268 282 284 284 282 283 285 285 286 284 281 281 281 279 277 275 275 274 275 276 277 278 278 277 276 277 279 279 281 281 282 284 284 285 285
257 262 262 260 262 264 267 266 267 278 281 278 278 279 281 281 280 283 285 285 284 283 281 280 279 277 276 276 276 278 278 278 280 280 280 281 281 282 282 283 282 281 281
258 261 258 255 259 264 261 264 275 276 277 278 276 279 277 274 275 280 286 285 283 281 280 277 280 277 276 278 280 281 280 280 280 280 280 280 279 282 281 279 280 280 280
253 249 247 255 258 261 262 268 273 271 274 279 278 278 275 270 278 283 284 289 287 282 279 278 279 279 280 282 283 283 282 281 282 282 280 280 279 277 280 280 280 282 281
245 246 257 259 260 260 262 266 263 268 273 276 271 273 274 273 281 283 286 288 286 279 278 278 278 280 281 285 285 282 285 285 284 281 281 276 279 286 287 286 284 284 286
238 251 254 251 263 257 255 257 260 270 269 273 270 272 273 276 278 283 291 285 283 282 280 278 280 283 285 285 288 288 285 280 278 284 284 287 286 292 293 294 292 287 287
247 250 241 254 250 250 256 262 259 261 268 271 274 278 277 279 278 284 290 281 289 287 282 286 281 281 288 291 287 286 285 280 282 286 291 295 294 292 291 288 289 284 285
237 241 244 248 245 259 272 256 263 271 273 270 276 274 276 281 284 287 286 287 292 287 281 291 291 288 289 288 291 288 285 287 286 288 291 293 293 290 289 285 284 284 284
236 238 247 253 252 265 271 266 277 278 272 272 276 279 285 287 283 282 284 289 289 282 282 285 287 291 294 301 292 292 292 288 288 291 290 289 289 287 284 284 284 285 286
229 235 246 248 257 263 274 274 278 281 283 285 287 283 286 283 281 283 284 287 290 284 282 281 286 292 296 295 289 292 290 286 284 284 285 285 287 286 284 283 285 285 284
227 232 239 242 250 257 263 271 275 280 279 286 287 285 281 282 285 287 285 284 286 286 288 286 290 293 293 292 290 288 285 287 286 285 284 286 285 284 284 285 285 285 287
228 232 235 240 248 254 256 263 267 276 280 279 284 283 279 280 282 277 275 276 281 284 286 283 283 285 290 288 287 288 289 288 286 285 285 285 285 284 285 287 287 289 288
230 229 235 240 242 251 256 260 263 271 275 276 278 272 277 277 275 271 274 276 276 277 279 279 282 283 287 287 286 289 289 289 288 288 289 289 288 288 288 288 290 288 287
226 225 230 234 242 249 256 259 261 274 277 275 274 277 277 276 281 276 276 279 280 278 280 283 285 287 288 290 288 290 292 291 290 290 292 291 290 290 290 290 289 287 287
223 224 230 233 240 241 247 253 271 263 270 267 274 277 274 273 279 277 280 278 279 279 283 285 286 290 290 291 293 291 292 292 291 293 290 291 290 291 291 291 290 289 288
Height
10924 10925 10926 10927 10926 10926 10927 10928 10930 10931 10931 10932 10932 10932 10931 10931 10931 10931 10932 10933 10933 10933 10931 10930 10929 10929 10930 10931 10930 10930 10930 10929 10928 10927 10927 10926 10925 10924 10924 10922 10922 10923 10922
10919 10920 10921 10921 10920 10921 10921 10922 10923 10924 10925 10926 10926 10926 10926 10926 10926 10927 10927 10927 10928 10928 10926 10924 10923 10923 10924 10925 10926 10925 10924 10924 10923 10922 10921 10922 10920 10919 10917 10917 10915 10914 10916
10913 10914 10914 10914 10914 10914 10915 10916 10917 10917 10917 10918 10919 10919 10920 10920 10919 10920 10920 10921 10922 10922 10920 10918 10917 10917 10917 10919 10921 10918 10918 10918 10918 10917 10916 10916 10916 10915 10913 10912 10910 10909 10909
10906 10907 10908 10909 10908 10908 10907 10908 10909 10910 10910 10910 10911 10912 10912 10912 10912 10912 10913 10914 10915 10915 10914 10912 10911 10911 10912 10913 10913 10913 10912 10912 10912 10911 10910 10909 10908 10908 10907 10906 10905 10904 10903
10898 10899 10900 10901 10902 10902 10902 10901 10901 10902 10902 10903 10903 10903 10905 10905 10905 10904 10905 10906 10907 10907 10906 10905 10904 10904 10906 10907 10905 10905 10905 10904 10904 10904 10903 10902 10901 10900 10900 10899 10898 10897 10896
10891 10891 10891 10892 10894 10895 10895 10894 10893 10893 10894 10895 10895 10895 10897 10897 10897 10897 10897 10898 10899 10900 10898 10897 10896 10897 10899 10899 10897 10896 10897 10897 10896 10895 10894 10894 10893 10892 10892 10892 10891 10890 10889
10882 10883 10882 10883 10885 10886 10887 10887 10885 10886 10886 10886 10886 10888 10888 10888 10889 10890 10890 10890 10891 10892 10892 10889 10887 10889 10892 10892 10890 10888 10888 10888 10887 10886 10886 10885 10885 10884 10883 10882 10882 10882 10882
10871 10873 10874 10875 10875 10876 10877 10878 10877 10878 10878 10877 10878 10877 10878 10879 10881 10881 10881 10882 10883 10883 10883 10882 10879 10881 10882 10881 10881 10881 10879 10878 10878 10877 10876 10875 10875 10874 10874 10874 10874 10873 10873
10861 10862 10863 10865 10867 10867 10867 10868 10869 10869 10870 10869 10869 10867 10868 10869 10870 10872 10872 10873 10874 10874 10874 10874 10871 10872 10872 10871 10872 10871 10870 10869 10869 10868 10866 10866 10865 10864 10864 10864 10864 10863 10863
10851 10853 10855 10857 10858 10858 10858 10859 10861 10862 10863 10862 10860 10860 10860 10860 10860 10861 10862 10862 10863 10863 10864 10864 10863 10862 10860 10861 10861 10861 10860 10859 10858 10857 10856 10856 10854 10853 10852 10852 10852 10852 10852
10843 10845 10846 10848 10848 10848 10849 10850 10851 10853 10855 10852 10851 10852 10853 10852 10851 10851 10851 10851 10852 10852 10852 10852 10852 10851 10850 10849 10848 10848 10849 10848 10846 10845 10845 10845 10844 10842 10841 10840 10840 10840 10840
10834 10836 10838 10838 10838 10840 10841 10841 10843 10846 10845 10845 10844 10844 10843 10844 10844 10843 10841 10841 10841 10840 10839 10839 10840 10839 10838 10837 10836 10835 10835 10835 10835 10834 10833 10832 10831 10830 10830 10829 10828 10827 10826
10823 10825 10828 10828 10830 10830 10831 10833 10834 10836 10837 10837 10835 10835 10835 10834 10834 10834 10833 10832 10830 10829 10828 10828 10828 10828 10826 10825 10824 10823 10822 10822 10822 10821 10821 10820 10819 10818 10817 10816 10815 10814 10813
10811 10817 10819 10820 10821 10821 10823 10824 10826 10829 10829 10829 10827 10826 10826 10826 10825 10824 10823 10822 10821 10819 10818 10817 10817 10817 10814 10813 10812 10811 10810 10809 10809 10808 10808 10807 10806 10805 10804 10803 10802 10801 10801
10804 10805 10808 10809 10810 10811 10813 10815 10817 10818 10819 10820 10819 10817 10817 10817 10816 10815 10813 10811 10810 10808 10807 10806 10804 10803 10802 10801 10800 10800 10798 10797 10796 10795 10794 10794 10794 10793 10791 10791 10790 10790 10789
10792 10793 10797 10797 10798 10799 10804 10805 10805 10806 10808 10809 10808 10808 10807 10807 10805 10805 10803 10801 10798 10797 10796 10795 10794 10792 10790 10790 10790 10788 10786 10785 10784 10783 10782 10781 10782 10781 10781 10779 10779 10779 10778
10776 10783 10785 10786 10786 10788 10793 10795 10794 10796 10797 10797 10797 10798 10798 10797 10796 10794 10793 10790 10788 10787 10785 10783 10783 10782 10780 10779 10779 10778 10775 10774 10774 10772 10771 10772 10770 10768 10767 10766 10765 10765 10764
10771 10769 10775 10778 10777 10780 10786 10788 10785 10785 10787 10787 10787 10788 10788 10787 10785 10783 10781 10779 10778 10776 10774 10774 10773 10771 10769 10768 10767 10766 10765 10764 10763 10759 10755 10754 10755 10754 10752 10750 10749 10749 10749
10761 10759 10767 10769 10769 10772 10776 10774 10776 10775 10777 10778 10778 10778 10777 10777 10775 10772 10770 10769 10767 10765 10764 10764 10762 10760 10758 10757 10756 10753 10752 10749 10747 10746 10743 10740 10739 10738 10737 10734 10732 10732 10731
10750 10756 10758 10760 10761 10762 10764 10766 10768 10765 10767 10768 10768 10766 10765 10763 10761 10759 10757 10757 10756 10755 10753 10752 10750 10748 10745 10743 10741 10738 10735 10732 10730 10729 10727 10724 10723 10721 10720 10717 10714 10712 10710
10742 10751 10753 10755 10753 10753 10753 10758 10760 10757 10757 10756 10755 10755 10752 10750 10747 10745 10744 10742 10742 10742 10741 10739 10737 10734 10732 10731 10729 10726 10722 10719 10715 10712 10709 10706 10703 10701 10699 10697 10694 10691 10689
10732 10741 10746 10743 10747 10747 10748 10751 10754 10752 10750 10746 10744 10743 10741 10738 10734 10733 10728 10728 10728 10726 10724 10723 10722 10719 10715 10712 10711 10710 10708 10703 10698 10694 10690 10686 10683 10679 10676 10673 10671 10669 10666
10720 10729 10734 10735 10738 10742 10745 10749 10749 10747 10744 10740 10735 10730 10727 10724 10721 10719 10716 10716 10714 10712 10710 10708 10707 10706 10705 10700 10696 10692 10688 10684 10681 10675 10670 10667 10662 10657 10652 10649 10646 10643 10641
10708 10716 10724 10730 10732 10735 10739 10744 10743 10740 10738 10731 10729 10722 10719 10710 10708 10706 10705 10703 10702 10700 10698 10695 10692 10690 10687 10684 10678 10674 10669 10664 10659 10653 10646 10643 10639 10635 10631 10626 10622 10618 10615
10694 10704 10713 10720 10724 10729 10736 10738 10738 10733 10727 10722 10718 10711 10706 10700 10686 10689 10690 10688 10689 10686 10680 10678 10675 10670 10666 10662 10658 10654 10648 10643 10637 10632 10626 10615 10610 10606 10603 10600 10595 10592 10589
10681 10695 10702 10711 10716 10722 10727 10734 10737 10718 10713 10708 10705 10699 10687 10682 10676 10671 10671 10669 10669 10668 10665 10661 10657 10652 10645 10641 10635 10631 10625 10619 10615 10608 10604 10597 10592 10583 10574 10567 10562 10558 10554